Home   Weather   Pontianak   Past weeks

Flag for Indonesia Past Weather in Pontianak, West Kalimantan, Indonesia — Yesterday and Last 2 Weeks

Now
81 °F

Passing clouds.


Feels Like: 87 °F
Forecast: 77 / 90 °F
Wind: No wind

Location: Pontianak / Supadio

Current Time: Dec 7, 2016 at 11:49:31 pm

Latest Report: Dec 7, 2016 at 9:30 pm


Visibility: 4 mi

Pressure: 29.77 "Hg

Humidity: 89%

Dew Point: 77 °F

Location of PontianakLocation

Past Weather in Pontianak — Graph

°F

Pontianak Temperature Yesterday

Maximum temperature yesterday: 93 °F (at 1:00 pm)
Minimum temperature yesterday: 77 °F (at 5:00 am)
Average temperature yesterday: 86 °F

High & Low Weather Summary for the Past Weeks

 TemperatureHumidityPressure
High93 °F (Dec 6, 1:00 pm)100% (Nov 23, 5:00 am)29.89 "Hg (Nov 23, 5:00 am)
Low72 °F (Dec 4, 11:00 am)53% (Dec 6, 1:30 pm)29.65 "Hg (Nov 26, 2:30 pm)
Average81 °F84%29.79 "Hg
* Reported Nov 22 9:00 pm — Dec 7 9:30 pm, Pontianak, Weather by CustomWeather, © 2016

Note: Actual official high and low records may vary slightly from our data, if they occured in-between our weather recording intervals... More about our weather records

Advertising

Pontianak Weather History for the Previous 24 Hours

Scroll right to see more
 ConditionsComfort  
Time TempWeatherWind HumidityBarometerVisibility
9:30 pm
Wed, Dec 7
81 °FPassing clouds.No wind89%29.77 "Hg4 mi
9:00 pm81 °FPassing clouds.3 mph89%29.77 "Hg4 mi
8:30 pm81 °FPassing clouds.5 mph89%29.77 "Hg4 mi
8:00 pm81 °FPassing clouds.5 mph89%29.77 "Hg4 mi
7:30 pm82 °FPassing clouds.3 mph84%29.77 "Hg4 mi
7:00 pm82 °FPassing clouds.5 mph84%29.74 "Hg4 mi
6:30 pm82 °FPassing clouds.3 mph84%29.74 "Hg4 mi
6:00 pm84 °FPassing clouds.6 mph79%29.71 "Hg5 mi
5:30 pm86 °FPassing clouds.6 mph70%29.71 "HgN/A
5:00 pm88 °FPassing clouds.3 mph70%29.71 "HgN/A
4:30 pm91 °FPassing clouds.7 mph59%29.71 "HgN/A
4:00 pm91 °FPassing clouds.5 mph59%29.68 "HgN/A
3:00 pm91 °FScattered clouds.7 mph63%29.68 "HgN/A
2:30 pm91 °FScattered clouds.6 mph63%29.68 "HgN/A
2:00 pm90 °FScattered clouds.5 mph67%29.71 "HgN/A
1:30 pm90 °FScattered clouds.5 mph67%29.71 "HgN/A
1:00 pm90 °FScattered clouds.9 mph67%29.74 "HgN/A
12:30 pm90 °FScattered clouds.10 mph63%29.74 "HgN/A
12:00 pm90 °FScattered clouds.8 mph67%29.77 "HgN/A
11:30 am90 °FScattered clouds.8 mph67%29.77 "HgN/A
11:00 am90 °FScattered clouds.7 mph67%29.77 "HgN/A
10:30 am88 °FScattered clouds.No wind66%29.80 "HgN/A
10:00 am86 °FPassing clouds.No wind75%29.80 "HgN/A
9:30 am84 °FPassing clouds.No wind74%29.80 "HgN/A
9:00 am82 °FPassing clouds.No wind84%29.80 "HgN/A
7:30 am81 °FPassing clouds.5 mph84%29.80 "HgN/A
6:30 am77 °FPassing clouds.No wind94%29.80 "Hg4 mi
6:00 am77 °FPassing clouds.No wind94%29.77 "Hg4 mi
5:30 am77 °FPassing clouds.No wind94%29.77 "Hg4 mi
5:00 am77 °FPassing clouds.No wind94%29.77 "Hg4 mi
Weather by CustomWeather, © 2016

See weather overviewHow to use our weather pages